Location: Unspecified
(40.9447°N, 78.9903°W)
Time: 10:19:52
(UTC-04:00)

Resurs 1-4 Rocket - Pass Details

Date: 02 August 2021
Orbit: 799 x 814 km, 98.6° (Epoch: 27 September)

Event Time Altitude Azimuth Distance (km) Brightness Sun altitude
Rises 01:19:00 0° 36° (NE) 3,333 6.0 -31.4°
Reaches altitude 10° 01:23:04 10° 67° (ENE) 2,391 4.8 -31.4°
Enters shadow 01:24:28 12° 82° (E) 2,261 4.5 -31.4°
